Regional Weather Roundup
Issued by NWS Glasgow, MT

Home | Current Version | Previous Version | Text Only | Print | Product List | Glossary On
Versions: 1 2 3 4 5 6 7 8 9 10 11 12 13 14 15 16 17 18 19 20 21 22 23 24 25 26 27
000
ASUS45 KGGW 161915
RWRGGW
HOURLY REGIONAL WEATHER ROUNDUP FOR NORTHEAST MONTANA
NATIONAL WEATHER SERVICE GLASGOW MONTANA
1200 PM MST TUE JAN 16 2018

NOTE: "FAIR" INDICATES FEW OR NO CLOUDS BELOW 12,000 FEET WITH NO
SIGNIFICANT WEATHER AND/OR OBSTRUCTIONS TO VISISBILITY.

NORTHEAST MONTANA


CITY           SKY/WX    TMP DP  RH WIND       PRES   REMARKS
GLASGOW        SUNNY      3  -6  66 E18       30.23F WCI -17
PLENTYWOOD       N/A      2  -8  63 E6          N/A
WOLF POINT     SUNNY     -5 -15  62 NE7       30.33F
JORDAN           N/A     12   4  70 S10       30.21F WCI  -1
WINNETT          N/A     31  18  58 S12G26      N/A
SIDNEY         SUNNY      2  -8  63 S12       30.36F WCI -15
GLENDIVE       SUNNY      1  -8  66 SW12      30.33F WCI -16
SCOBEY           N/A      6  -7  54 CALM      30.20F

FORT PECK REPORTS


CITY           SKY/WX    TMP DP  RH WIND       PRES   REMARKS
FORT PECK        N/A      9   1  70 SE13        N/A  WCI  -7
THE PINES        N/A      9  -2  61 S12         N/A  WCI  -6

SOUTHEAST MONTANA


CITY           SKY/WX    TMP DP  RH WIND       PRES   REMARKS
BILLINGS       MOSUNNY   22  10  60 SW15      30.21F
MILES CITY     SUNNY     -7  -9  91 CALM      30.30F
BAKER          SUNNY      7  -2  66 SE14      30.32F WCI -10
LIVINGSTON     SUNNY     34  15  46 NW18G35   30.18F

CENTRAL MONTANA


CITY           SKY/WX    TMP DP  RH WIND       PRES   REMARKS
HAVRE          MOSUNNY  -14 -18  82 CALM      30.19F
LEWISTOWN      SUNNY     29  15  56 E3        30.08F
GREAT FALLS    SUNNY     38  20  48 SW26G35   30.08F
CUT BANK       SUNNY     12   9  87 S3        30.05F
HELENA         CLOUDY    17  16  95 W3        30.27F FOG
BUTTE          SUNNY     17  14  88 S3        30.22F
BOZEMAN        SUNNY     17  10  74 CALM      30.27F

WESTERN MONTANA


CITY           SKY/WX    TMP DP  RH WIND       PRES   REMARKS
MISSOULA       SUNNY     32  24  72 W3        30.27S
KALISPELL      NOT AVBL

NORTH DAKOTA


CITY           SKY/WX    TMP DP  RH WIND       PRES   REMARKS
WILLISTON      SUNNY      4  -9  55 VRB3      30.36F
DICKINSON      SUNNY     12  -5  46 S18       30.32F WCI  -6
MINOT          CLOUDY     9  -8  46 S18G24    30.38F WCI -10
BISMARCK       SUNNY      1 -10  60 VRB6      30.54F

SOUTHERN SASKATCHEWAN


CITY           SKY/WX    TMP DP  RH WIND       PRES   REMARKS
REGINA         MOSUNNY   10  -2  56 SE14G20   30.20F WCI  -5
MOOSE JAW      MOSUNNY   25   3  39 S9        30.17F
ESTEVAN        MOSUNNY   10  -4  52 SW13G18   30.31F WCI  -5
SWIFT CURRENT  SUNNY     14   1  57 S23G31    30.02F WCI  -5





USA.gov is the U.S. government's official web portal to all federal, state and local government web resources and services.